CZ-3B DEB, 42458

Orbit data source: Space-Track

CZ-3B DEB, 42458 is space debris in HEO originally from a launch on Sat, 04 Sep 2010 UTC launched from the Xichang Space Center, China (XSC). Debris objects in space refer to the collection of defunct objects orbiting the Earth. Examples of debris include non-operational satellites, rocket bodies, and fragments generated from explosions, collisions, or faulty payload assembly.

Loading next visibility...
Identifier
42458, 2010-042Z
Orbit
HEO
Country
Flag of CNCN / PRC
Related business
Manufacturer
CALT
Mission
Spacecraft
Bus & Motor
Unknown
Mass
Unknown
Launch date (UTC)
2010-09-04 (15 years ago)
Launch vehicle
Unknown
Launch site
Xichang Space Center, China (XSC)
Object type
Payload
Rocket body
Debris
Shape & HBR
Unknown shape, 0.1 m
Radar Cross Section
Medium (>0.1 m² and <1 m²)

Expand to show TLE details & history
Last TLE update: 2 days ago

TLE from 2 days ago
0 CZ-3B DEB
1 42458U 10042Z   25285.31118681 -.00000035  00000-0  14660-2 0  9999
2 42458  31.0654 313.4467 7479020 134.9210 317.6608  1.81285579 71972
Epoch: 2025-10-12T07:28Z
TLE epoch observation values (Epoch: 2025-10-12T07:28:06.540Z)
Latitude
0.00002°
Longitude
-179.66109°
Altitude
20,130.883 km
Speed
4.005 km/s
True Right ascension
20h 53m 59s
True Declination
0° 00' 00"
Sunlit
Object was in daylight at epoch
Visualization orbit readout
Latitude
Unknown
Longitude
Unknown
Altitude
Unknown
Speed
Unknown
Apparent Right ascension
Unknown
Apparent Declination
Unknown
Sunlit
N/A
Visualization observer readout
Local Sidereal Time
10:00:25
Azimuth
Unknown
Elevation
Unknown
Doppler factor
Unknown
Orbital elements
Apogee altitude
43,287.842 km
Perigee altitude
785.133 km
Semi-major axis
28,414.625 km
Eccentricity
0.7479
Inclination
31.0654°
RAAN
313.4467°
Arg. of periapsis
134.921°
True anomaly
225.00219°
Mean anomaly
317.6608°
Eccentric anomaly
274.97031°
Mean motion
0.45314 °/min
Orbital period
794.46 mins
BSTAR
0.001466
Loading maneuver chart data...
Computing Atmospheric mass density...
Loading historical data...
Loading historical data...
Loading historical data...
Loading historical data...
Loading historical data...
Loading historical data...
Loading historical data...

Documentation

Showing up to 5 results
|